Waarnemingen

Advertentie
Mijn weer
Gioia Del Colle, Italië (16312): temperatuur & dauwpunt: 19.05.2018 12:00:00 - 25.05.2018 12:00:00 (CEST)Gioia Del Colle, Italië (16312): windsnelheid: 19.05.2018 12:00:00 - 25.05.2018 12:00:00 (CEST)Gioia Del Colle, Italië (16312): windrichting: 19.05.2018 12:00:00 - 25.05.2018 12:00:00 (CEST)Gioia Del Colle, Italië (16312): luchtdruk: 19.05.2018 12:00:00 - 25.05.2018 12:00:00 (CEST)Gioia Del Colle, Italië (16312): zicht: 19.05.2018 12:00:00 - 25.05.2018 12:00:00 (CEST)
Datum & Tijd tt [°C] td [°C] ff [km/u] ff [kn] dd ppp [hPa] vv [km]
25.05.2018 12:00:00 - - - - - - -
25.05.2018 11:00:00 23,0 11,4 16 9 N 1014,1 10
25.05.2018 10:00:00 23,0 12,0 18 10 NNW - 10
25.05.2018 09:00:00 22,0 12,0 15 8 NNW - 10
25.05.2018 08:00:00 19,6 12,9 18 10 NNW 1013,8 10
25.05.2018 07:00:00 17,0 14,0 11 6 NW - 10
25.05.2018 06:00:00 16,0 15,0 11 6 NNW - 10
25.05.2018 05:00:00 15,0 14,0 8 4 NW 1014,2 10
25.05.2018 04:00:00 15,0 14,0 5 3 NW - 10
25.05.2018 03:00:00 15,0 14,0 9 5 NW - 10
25.05.2018 02:00:00 15,0 14,0 5 3 WNW 1014,6 10
25.05.2018 01:00:00 15,0 14,0 8 4 W - 10
25.05.2018 00:00:00 16,0 15,0 5 3 NNW - 10
24.05.2018 23:00:00 16,2 14,5 8 4 NNW 1014,7 10
24.05.2018 22:00:00 17,0 15,0 8 4 N - 10
24.05.2018 21:00:00 18,0 15,0 9 5 N - 10
24.05.2018 20:00:00 19,4 14,4 11 6 N 1014,1 10
24.05.2018 19:00:00 21,0 13,0 15 8 N - 10
24.05.2018 18:00:00 22,0 12,0 16 9 N - 10
24.05.2018 17:00:00 22,0 13,6 16 9 N 1014,3 10
24.05.2018 16:00:00 23,0 13,0 18 10 NNW - 10
24.05.2018 15:00:00 22,0 13,0 21 11 N - 10
24.05.2018 14:00:00 22,0 13,9 22 12 N 1015,1 10
24.05.2018 13:00:00 22,0 15,0 22 12 N - 10
24.05.2018 12:00:00 20,0 14,0 22 12 N - 10
24.05.2018 11:00:00 19,0 16,6 16 9 NNW 1015,5 8
24.05.2018 10:00:00 18,0 17,0 16 9 N - 7
24.05.2018 09:00:00 17,0 16,0 16 9 NNW - 5
24.05.2018 08:00:00 16,2 15,2 5 3 NNW 1014,9 3,5
24.05.2018 07:00:00 17,0 16,0 15 8 N - 2,2
24.05.2018 06:00:00 16,0 15,0 13 7 NW - 7
24.05.2018 05:00:00 16,0 15,0 13 7 NW 1014,3 7
24.05.2018 04:00:00 16,0 15,0 11 6 NW - 7
24.05.2018 03:00:00 16,0 15,0 8 4 NW - 7
24.05.2018 02:00:00 16,0 15,4 8 4 NNW 1014,1 7
24.05.2018 01:00:00 16,0 15,0 4 2 - - 7
24.05.2018 00:00:00 16,0 15,0 2 1 W - 7
23.05.2018 23:00:00 16,4 15,9 2 1 WZW 1014,5 7
23.05.2018 22:00:00 16,0 16,0 2 1 - - 7
23.05.2018 21:00:00 17,0 16,0 5 3 NNW - 7
23.05.2018 20:00:00 17,6 16,8 8 4 NW 1012,9 6
23.05.2018 19:00:00 18,0 17,0 5 3 N - 6
23.05.2018 18:00:00 18,0 17,0 4 2 - - 7
23.05.2018 17:00:00 18,0 16,7 5 3 ZZO 1012,6 6
23.05.2018 16:00:00 19,0 16,0 8 4 N - 6
23.05.2018 15:00:00 20,0 16,0 15 8 NNO - 8
23.05.2018 14:00:00 20,6 14,0 13 7 NW 1012,7 8
23.05.2018 13:00:00 18,0 15,0 5 3 W - 7
23.05.2018 12:00:00 18,0 16,0 5 3 ZZW - 7
23.05.2018 11:00:00 16,4 15,4 5 3 ZW 1013,7 7
23.05.2018 10:00:00 16,0 15,0 9 5 WZW - 6
23.05.2018 09:00:00 20,0 16,0 4 2 Z - 6
23.05.2018 08:00:00 18,4 15,3 11 6 N 1013,6 5
23.05.2018 07:00:00 18,0 17,0 5 3 N - 5
23.05.2018 06:00:00 17,0 16,0 21 11 NNO - 5
23.05.2018 05:00:00 17,0 16,4 5 3 NNW 1013,2 5
23.05.2018 04:00:00 17,0 16,0 2 1 - - 10
23.05.2018 03:00:00 17,0 16,0 15 8 Z - 10
23.05.2018 02:00:00 17,2 15,9 15 8 Z 1015,0 10
23.05.2018 01:00:00 17,0 15,0 13 7 Z - 10
23.05.2018 00:00:00 17,0 15,0 5 3 ZZW - 10
22.05.2018 23:00:00 17,0 14,5 8 4 NNO 1015,0 10
22.05.2018 22:00:00 18,0 15,0 2 1 ZZW - 10
22.05.2018 21:00:00 20,0 14,0 8 4 ZZW - 10
22.05.2018 20:00:00 20,6 12,3 13 7 ZZO 1013,6 10
22.05.2018 19:00:00 22,0 12,0 21 11 ZZO - 10
22.05.2018 18:00:00 24,0 13,0 18 10 ZZO - 10
22.05.2018 17:00:00 22,8 14,1 15 8 ZZO 1013,4 10
22.05.2018 16:00:00 22,0 12,0 15 8 ZZO - 10
22.05.2018 15:00:00 23,0 13,0 21 11 Z - 10
22.05.2018 14:00:00 25,0 10,1 26 14 ZZO 1013,3 10
22.05.2018 13:00:00 27,0 9,0 21 11 ZZO - 10
22.05.2018 12:00:00 26,0 10,0 16 9 OZO - 10
22.05.2018 11:00:00 25,6 10,2 9 5 ONO 1013,9 10
22.05.2018 10:00:00 24,0 11,0 4 2 - - 10
22.05.2018 09:00:00 22,0 11,0 9 5 W - 10
22.05.2018 08:00:00 20,8 14,7 5 3 ZW 1013,3 9
22.05.2018 07:00:00 18,0 17,0 9 5 Z - 7
22.05.2018 06:00:00 17,0 17,0 4 2 - - 7
22.05.2018 05:00:00 17,2 16,7 4 2 N 1013,1 6
22.05.2018 04:00:00 18,0 17,0 5 3 ZO - 7
22.05.2018 03:00:00 18,0 17,0 4 2 WZW - 7
22.05.2018 02:00:00 18,0 17,2 0 0 N 1012,6 7
22.05.2018 01:00:00 18,0 17,0 2 1 - - 7
22.05.2018 00:00:00 18,0 17,0 2 1 - - 7
21.05.2018 23:00:00 18,2 16,5 8 4 NNO 1012,4 8
21.05.2018 22:00:00 20,0 16,0 4 2 WNW - 8
21.05.2018 21:00:00 20,0 16,0 2 1 - - 10
21.05.2018 20:00:00 22,0 15,4 4 2 WZW 1010,9 10
21.05.2018 19:00:00 23,0 14,0 9 5 WZW - 10
21.05.2018 18:00:00 23,0 12,0 15 8 ZZW - 10
21.05.2018 17:00:00 23,8 12,8 18 10 Z 1010,9 10
21.05.2018 16:00:00 23,0 13,0 13 7 NNO - 10
21.05.2018 15:00:00 25,0 10,0 13 7 NNO - 10
21.05.2018 14:00:00 26,0 10,6 9 5 N 1010,8 10
21.05.2018 13:00:00 25,0 11,0 11 6 ONO - 10
21.05.2018 12:00:00 25,0 10,0 13 7 NNO - 10
21.05.2018 11:00:00 24,2 9,8 9 5 N 1011,8 10
21.05.2018 10:00:00 23,0 10,0 11 6 NNO - 10
21.05.2018 09:00:00 21,0 13,0 11 6 N - 10
21.05.2018 08:00:00 17,6 14,1 2 1 N 1012,7 8
21.05.2018 07:00:00 15,0 14,0 2 1 - - 7
21.05.2018 06:00:00 13,0 13,0 8 4 NW - 6
21.05.2018 05:00:00 13,0 12,2 8 4 NW 1013,3 6
21.05.2018 04:00:00 13,0 13,0 5 3 NNO - 5
21.05.2018 03:00:00 14,0 14,0 2 1 - - 5
21.05.2018 02:00:00 14,8 14,5 4 2 NNW 1013,5 5
21.05.2018 01:00:00 15,0 15,0 4 2 NNW - 6
21.05.2018 00:00:00 16,0 15,0 2 1 - - 8
20.05.2018 23:00:00 16,4 15,1 4 2 - 1012,6 10
20.05.2018 22:00:00 18,0 16,0 8 4 NNO - 10
20.05.2018 21:00:00 19,0 16,0 9 5 NNO - 10
20.05.2018 20:00:00 20,4 15,0 11 6 N 1011,3 10
20.05.2018 19:00:00 22,0 13,0 11 6 N - 10
20.05.2018 18:00:00 23,0 12,0 11 6 N - 10
20.05.2018 17:00:00 24,0 12,6 13 7 NNO 1011,3 10
20.05.2018 16:00:00 25,0 12,0 16 9 N - 10
20.05.2018 15:00:00 25,0 12,0 15 8 N - 10
20.05.2018 14:00:00 24,2 11,9 16 9 N 1011,9 10
20.05.2018 13:00:00 24,0 11,0 18 10 N - 10
20.05.2018 12:00:00 23,0 11,0 18 10 NNO - 10
20.05.2018 11:00:00 22,6 11,4 21 11 NNO 1013,0 10
20.05.2018 10:00:00 22,0 10,0 15 8 N - 10
20.05.2018 09:00:00 20,0 9,0 21 11 N - 10
20.05.2018 08:00:00 19,0 10,3 9 5 NNW 1013,3 10
20.05.2018 07:00:00 14,0 10,0 4 2 N - 10
20.05.2018 06:00:00 13,0 8,0 5 3 NNW - 10
20.05.2018 05:00:00 13,4 8,0 4 2 WNW 1013,9 10
20.05.2018 04:00:00 14,0 9,0 8 4 NNW - 10
20.05.2018 03:00:00 13,0 11,0 8 4 NW - 10
20.05.2018 02:00:00 12,8 12,0 8 4 NNW 1014,1 10
20.05.2018 01:00:00 13,0 12,0 9 5 NNW - 10
20.05.2018 00:00:00 14,0 13,0 2 1 - - 10
19.05.2018 23:00:00 14,6 12,1 4 2 NNO 1013,7 10
19.05.2018 22:00:00 16,0 12,0 9 5 NW - 10
19.05.2018 21:00:00 17,0 12,0 9 5 N - 10
19.05.2018 20:00:00 18,4 9,7 15 8 N 1013,0 10
19.05.2018 19:00:00 20,0 10,0 18 10 N - 10
19.05.2018 18:00:00 22,0 7,0 22 12 N - 10
19.05.2018 17:00:00 22,0 6,7 21 11 N 1012,8 10
19.05.2018 16:00:00 23,0 7,0 22 12 N - 10
19.05.2018 15:00:00 23,0 8,0 24 13 N - 10
19.05.2018 14:00:00 23,0 7,9 22 12 N 1013,0 10
19.05.2018 13:00:00 23,0 8,0 22 12 N - 10
19.05.2018 12:00:00 23,0 9,0 22 12 N - 10

tt = temperatuur
td = dauwpunt
ff = windsnelheid
dd = windrichting
ppp = luchtdruk
vv = zicht

Weerstations in de omgeving